STARLINK-31587, 59570

Orbit data source: Space-Track

STARLINK-31587, 59570 is a payload satellite owned by SpaceX/Seattle (US) in LEO that was launched on Tue, 23 Apr 2024 UTC via an FALCON 9 launch vehicle from the Air Force Eastern Test Range (AFETR). Payload-class satellites include a variety of spacecraft equipped with specific instruments for various scientific and technological missions. These include communications satellites like Starlink; space stations such as the ISS; scientific satellites like the Hubble; Earth observation satellites from companies like Planet Labs, Umbra, and HawkEye 360; GPS; miniature CubeSats for education and research; and military/defense satellites.

Loading next visibility...
Identifier
59570, 2024-076G
Orbit
LEO
Last TLE update
17 hours ago
Origin
Manufacturer
SpaceX/Seattle
Mission
Operational spacecraft
Bus & Motor
STARLINK V2M, Unknown motor
Mass
730 kg wet, ~700 kg dry
Launch date (UTC)
2024-04-23 (1 year ago)
Launch vehicle
FALCON 9
Launch site
Air Force Eastern Test Range (AFETR)
Object type
Payload
Rocket body
Debris
Shape & HBR
Unknown
Radar Cross Section
Large (>1 m²)

Expand to show TLE details & history

TLE from 17 hours ago
0 STARLINK-31587
1 59570U 24076G   25191.32099576  .00000067  00000-0  11962-4 0  9990
2 59570  42.9997 297.9362 0000685 278.5533  81.5241 15.27578701 69456
Epoch: 2025-07-10T07:42Z
TLE epoch observation values (Epoch: 2025-07-10T07:42:14.033Z)
Latitude
-0.00003°
Longitude
-106.11126°
Altitude
482.759 km
Speed
7.626 km/s
True Right ascension
19h 51m 44s
True Declination
0° 00' 00"
Sunlit
Object was in full shadow at epoch
Visualization orbit readout
Latitude
-13.55015°
Longitude
84.88273°
Altitude
485.504 km
Speed
7.624 km/s
Apparent Right ascension
05h 34m 30s
Apparent Declination
-43° 46' 56"
Sunlit
Object is in daylight
Visualization observer readout
Local Sidereal Time
12:32:15
Azimuth
239.298° WSW
Elevation
-35.595°
Doppler factor
1
Orbital elements
Apogee altitude
485.468 km
Perigee altitude
484.528 km
Semi-major axis
6,863.135 km
Eccentricity
0.00007
Inclination
42.9997°
RAAN
297.9362°
Arg. of periapsis
278.5533°
True anomaly
Unknown
Mean anomaly
81.5241°
Eccentric anomaly
Unknown
Mean motion
3.81733 °/min
Orbital period
94.31 mins
BSTAR
0.000011962
Loading maneuver chart data...
Loading SW <> Apogee altitude chart data...
Loading historical data...
Loading historical data...
Loading historical data...
Loading historical data...
Loading historical data...
Loading historical data...
Loading historical data...

STARLINK-31587 Visibility forecast

Observer location: undefined°, undefined°

Span
Click to sort rows by Start time (UTC) header in descending order
Start Az.
Max El. time (UTC)
Max El. Az.
Max El.
End time (UTC)
End Az.
5 mins2025-07-11 10:37:03.557Z222.794° SW2025-07-11 10:39:03.557Z161.577° S38.455°2025-07-11 10:42:03.557Z80.384° E
5 mins2025-07-11 12:16:03.557Z279.097° WNW2025-07-11 12:18:03.557Z345.297° N40.258°2025-07-11 12:21:03.557Z68.853° E
5 mins2025-07-11 13:55:03.557Z294.732° NW2025-07-11 13:57:03.557Z345.067° N39.927°2025-07-11 14:00:03.557Z86.473° E
5 mins2025-07-11 15:34:03.557Z274.073° WNW2025-07-11 15:36:03.557Z221.155° SW36.967°2025-07-11 15:39:03.557Z134.815° SE
|